Latest Weather Observations for Point Wilson

IDV60801

Issued at 4:31 pm EDT Sunday 1 February 2015 (issued every 30 minutes, with the page automatically refreshed every 10 minutes)

About weather observations | Map of weather stations | Latest weather observations for VIC | Other Formats
Station Details ID: 087166 Name: POINT WILSON Lat: -38.10 Lon: 144.54 Height: 18.0 m
Data from the previous 72 hours. | See also: Recent months at Point Wilson
Date/Time
EDT
Temp
°C
App
Temp
°C
Dew
Point
Rel
Hum
%
Delta-T
°C
Wind Press
QNH
hPa
Press
MSL
hPa
Rain
since 9 am
mm
Dir
 
Spd
km/h
Gust
km/h
Spd
kts
Gust
kts
01/04:30pm - - - - - SSW 43 50 23 27 - - -
01/04:00pm - - - - - SSW 43 50 23 27 - - -
01/03:30pm - - - - - SSW 41 50 22 27 - - -
01/03:00pm - - - - - SSW 41 48 22 26 - - -
01/02:30pm - - - - - SSW 43 50 23 27 - - -
01/02:00pm - - - - - SSW 43 48 23 26 - - -
01/01:30pm - - - - - SSW 39 46 21 25 - - -
01/01:00pm - - - - - SSW 37 44 20 24 - - -
01/12:30pm - - - - - SSW 39 44 21 24 - - -
01/12:00pm - - - - - SW 33 37 18 20 - - -
01/11:30am - - - - - SW 32 39 17 21 - - -
01/11:00am - - - - - SW 32 41 17 22 - - -
01/10:30am - - - - - SW 22 28 12 15 - - -
01/10:00am - - - - - WSW 24 28 13 15 - - -
01/09:30am - - - - - WSW 24 30 13 16 - - -
01/09:00am - - - - - WSW 26 32 14 17 - - -
01/08:30am - - - - - WSW 26 32 14 17 - - -
01/08:00am - - - - - WSW 28 32 15 17 - - -
01/07:30am - - - - - WSW 30 35 16 19 - - -
01/07:00am - - - - - WSW 28 35 15 19 - - -
01/06:30am - - - - - WSW 28 32 15 17 - - -
01/06:00am - - - - - WSW 28 33 15 18 - - -
01/05:30am - - - - - WSW 26 32 14 17 - - -
01/05:00am - - - - - WSW 26 32 14 17 - - -
01/04:30am - - - - - WSW 26 32 14 17 - - -
01/04:00am - - - - - WSW 28 35 15 19 - - -
01/03:30am - - - - - SW 26 32 14 17 - - -
01/03:00am - - - - - WSW 30 35 16 19 - - -
01/02:30am - - - - - SW 26 32 14 17 - - -
01/02:00am - - - - - WSW 22 28 12 15 - - -
01/01:30am - - - - - WSW 19 24 10 13 - - -
01/01:00am - - - - - SW 22 30 12 16 - - -
01/12:30am - - - - - WSW 22 28 12 15 - - -
01/12:00am - - - - - WSW 24 30 13 16 - - -
 
Date/Time
EDT
Temp
°C
App
Temp
°C
Dew
Point
Rel
Hum
%
Delta-T
°C
Wind Press
QNH
hPa
Press
MSL
hPa
Rain
since 9 am
mm
Dir
 
Spd
km/h
Gust
km/h
Spd
kts
Gust
kts
31/11:30pm - - - - - WSW 22 26 12 14 - - -
31/11:00pm - - - - - WSW 24 28 13 15 - - -
31/10:30pm - - - - - WSW 26 30 14 16 - - -
31/10:00pm - - - - - WSW 26 30 14 16 - - -
31/09:30pm - - - - - WSW 26 32 14 17 - - -
31/09:00pm - - - - - SW 28 35 15 19 - - -
31/08:30pm - - - - - SW 28 39 15 21 - - -
31/08:00pm - - - - - SW 37 43 20 23 - - -
31/07:30pm - - - - - SW 35 39 19 21 - - -
31/07:00pm - - - - - SW 35 44 19 24 - - -
31/06:30pm - - - - - SW 41 48 22 26 - - -
31/06:00pm - - - - - SW 39 44 21 24 - - -
31/05:30pm - - - - - SSW 43 50 23 27 - - -
31/05:00pm - - - - - SW 43 50 23 27 - - -
31/04:30pm - - - - - SSW 41 48 22 26 - - -
31/04:00pm - - - - - SSW 41 46 22 25 - - -
31/03:30pm - - - - - SSW 37 46 20 25 - - -
31/03:00pm - - - - - SSW 35 43 19 23 - - -
31/02:30pm - - - - - SSW 33 41 18 22 - - -
31/02:00pm - - - - - SSW 32 37 17 20 - - -
31/01:30pm - - - - - SSW 32 37 17 20 - - -
31/01:00pm - - - - - SSW 33 39 18 21 - - -
31/12:30pm - - - - - SSW 33 41 18 22 - - -
31/12:00pm - - - - - SSW 33 39 18 21 - - -
31/11:30am - - - - - SSW 35 41 19 22 - - -
31/11:00am - - - - - SSW 37 43 20 23 - - -
31/10:30am - - - - - SSW 35 43 19 23 - - -
31/10:00am - - - - - SSW 35 43 19 23 - - -
31/09:30am - - - - - SSW 35 41 19 22 - - -
31/09:00am - - - - - SW 39 44 21 24 - - -
31/08:53am - - - - - SSW 37 43 20 23 - - -
31/08:30am - - - - - WSW 26 35 14 19 - - -
31/08:00am - - - - - W 26 32 14 17 - - -
31/07:30am - - - - - WSW 26 32 14 17 - - -
31/07:00am - - - - - W 26 32 14 17 - - -
31/06:30am - - - - - WSW 28 33 15 18 - - -
31/06:00am - - - - - W 26 32 14 17 - - -
31/05:30am - - - - - W 26 32 14 17 - - -
31/05:00am - - - - - W 24 28 13 15 - - -
31/04:30am - - - - - W 20 24 11 13 - - -
31/04:00am - - - - - W 20 26 11 14 - - -
31/03:30am - - - - - W 20 26 11 14 - - -
31/03:00am - - - - - W 19 24 10 13 - - -
31/02:30am - - - - - W 22 28 12 15 - - -
31/02:00am - - - - - SSW 22 26 12 14 - - -
31/01:30am - - - - - SW 22 28 12 15 - - -
31/01:00am - - - - - SW 24 30 13 16 - - -
31/12:30am - - - - - SW 22 26 12 14 - - -
31/12:00am - - - - - SW 24 28 13 15 - - -
 
Date/Time
EDT
Temp
°C
App
Temp
°C
Dew
Point
Rel
Hum
%
Delta-T
°C
Wind Press
QNH
hPa
Press
MSL
hPa
Rain
since 9 am
mm
Dir
 
Spd
km/h
Gust
km/h
Spd
kts
Gust
kts
30/11:30pm - - - - - SW 22 28 12 15 - - -
30/11:00pm - - - - - SW 24 28 13 15 - - -
30/10:30pm - - - - - SSW 22 26 12 14 - - -
30/10:00pm - - - - - SSW 19 22 10 12 - - -
30/09:30pm - - - - - SSW 19 24 10 13 - - -
30/09:00pm - - - - - S 20 26 11 14 - - -
30/08:30pm - - - - - S 26 30 14 16 - - -
30/08:00pm - - - - - S 26 32 14 17 - - -
30/07:30pm - - - - - S 24 30 13 16 - - -
30/07:00pm - - - - - S 24 30 13 16 - - -
30/06:30pm - - - - - S 26 32 14 17 - - -
30/06:00pm - - - - - S 28 32 15 17 - - -
30/05:30pm - - - - - S 30 35 16 19 - - -
30/05:00pm - - - - - S 28 33 15 18 - - -
30/04:30pm - - - - - S 26 32 14 17 - - -
30/04:00pm - - - - - S 28 32 15 17 - - -
30/03:30pm - - - - - S 26 32 14 17 - - -
30/03:00pm - - - - - S 28 35 15 19 - - -
30/02:30pm - - - - - S 28 33 15 18 - - -
30/02:00pm - - - - - S 28 35 15 19 - - -
30/01:30pm - - - - - S 28 32 15 17 - - -
30/01:00pm - - - - - S 26 35 14 19 - - -
30/12:30pm - - - - - S 22 28 12 15 - - -
30/12:00pm - - - - - SSE 24 33 13 18 - - -
30/11:30am - - - - - S 24 35 13 19 - - -
30/11:00am - - - - - S 26 30 14 16 - - -
30/10:30am - - - - - SSE 15 22 8 12 - - -
30/10:00am - - - - - SE 13 19 7 10 - - -
30/09:30am - - - - - ESE 11 17 6 9 - - -
30/09:00am - - - - - ESE 15 20 8 11 - - -
30/08:30am - - - - - E 15 19 8 10 - - -
30/08:00am - - - - - ESE 22 28 12 15 - - -
30/07:30am - - - - - E 19 24 10 13 - - -
30/07:00am - - - - - E 20 24 11 13 - - -
30/06:30am - - - - - S 15 20 8 11 - - -
30/06:00am - - - - - S 9 11 5 6 - - -
30/05:30am - - - - - ESE 11 15 6 8 - - -
30/05:00am - - - - - E 13 17 7 9 - - -
30/04:30am - - - - - E 22 26 12 14 - - -
30/04:00am - - - - - ESE 20 24 11 13 - - -
30/03:30am - - - - - S 24 30 13 16 - - -
30/03:00am - - - - - S 20 26 11 14 - - -
30/02:30am - - - - - SE 20 24 11 13 - - -
30/02:00am - - - - - ESE 20 24 11 13 - - -
30/01:30am - - - - - ESE 19 24 10 13 - - -
30/01:00am - - - - - ESE 22 26 12 14 - - -
30/12:30am - - - - - ESE 19 22 10 12 - - -
30/12:00am - - - - - ESE 22 26 12 14 - - -
 
Date/Time
EDT
Temp
°C
App
Temp
°C
Dew
Point
Rel
Hum
%
Delta-T
°C
Wind Press
QNH
hPa
Press
MSL
hPa
Rain
since 9 am
mm
Dir
 
Spd
km/h
Gust
km/h
Spd
kts
Gust
kts
29/11:30pm - - - - - ESE 22 28 12 15 - - -
29/11:00pm - - - - - SE 24 30 13 16 - - -
29/10:30pm - - - - - SE 26 30 14 16 - - -
29/10:00pm - - - - - SE 28 35 15 19 - - -
29/09:30pm - - - - - SE 30 37 16 20 - - -
29/09:00pm - - - - - SSE 32 37 17 20 - - -
29/08:30pm - - - - - SSE 33 41 18 22 - - -
29/08:00pm - - - - - SSE 32 43 17 23 - - -
29/07:30pm - - - - - SSE 37 46 20 25 - - -
29/07:00pm - - - - - SSE 37 44 20 24 - - -
29/06:30pm - - - - - SSE 41 50 22 27 - - -
29/06:00pm - - - - - SSE 39 44 21 24 - - -
29/05:30pm - - - - - SSE 39 46 21 25 - - -
29/05:00pm - - - - - SSE 37 46 20 25 - - -

Other Formats:

Comma delimited format used in spreadsheet applications
http://www.bom.gov.au/fwo/IDV60801/IDV60801.94847.axf

JavaScript Object Notation format (JSON) in row-major order
http://www.bom.gov.au/fwo/IDV60801/IDV60801.94847.json